This is the latest recevied weather packets stored in our database for station/object K7LDN-13. If no packets are shown the sender has not sent any weather packets the latest 1 day(s).
| Time | Temp. | Humidity | Pressure | Rain* | Wind** | Luminosity | Snow |
|---|---|---|---|---|---|---|---|
| 1777980144 | 12.78° C | 69% | 1011.4 hPa | 0 mm | 2.24 m/s, 146° | 0 W/m² | - |
| 1777979843 | 12.78° C | 69% | 1011.4 hPa | 0 mm | 2.24 m/s, 140° | 0 W/m² | - |
| 1777979540 | 12.78° C | 71% | 1011.2 hPa | 0 mm | 1.79 m/s, 145° | 0 W/m² | - |
| 1777979235 | 12.78° C | 70% | 1011.5 hPa | 0 mm | 2.68 m/s, 142° | 0 W/m² | - |
| 1777978933 | 12.78° C | 69% | 1011.6 hPa | 0 mm | 3.58 m/s, 143° | 0 W/m² | - |
| 1777978629 | 12.78° C | 68% | 1011.6 hPa | 0 mm | 2.68 m/s, 143° | 0 W/m² | - |
| 1777978325 | 12.78° C | 68% | 1011.5 hPa | 0 mm | 2.24 m/s, 138° | 0 W/m² | - |
| 1777978022 | 13.33° C | 68% | 1011.5 hPa | 0 mm | 1.79 m/s, 161° | 0 W/m² | - |
| 1777977720 | 13.33° C | 67% | 1011.5 hPa | 0 mm | 1.79 m/s, 165° | 0 W/m² | - |
| 1777977416 | 13.33° C | 65% | 1011.5 hPa | 0 mm | 2.68 m/s, 173° | 0 W/m² | - |
| 1777977114 | 13.33° C | 63% | 1011.5 hPa | 0 mm | 4.47 m/s, 135° | 0 W/m² | - |
| 1777976811 | 13.33° C | 62% | 1011.4 hPa | 0 mm | 7.15 m/s, 137° | 0 W/m² | - |
| 1777976508 | 13.33° C | 60% | 1011.5 hPa | 0 mm | 2.68 m/s, 139° | 0 W/m² | - |
| 1777976207 | 13.33° C | 60% | 1011.5 hPa | 0 mm | 2.24 m/s, 145° | 0 W/m² | - |
| 1777975903 | 13.33° C | 61% | 1011.5 hPa | 0 mm | 2.24 m/s, 172° | 0 W/m² | - |
| 1777975599 | 13.33° C | 61% | 1011.4 hPa | 0 mm | 1.34 m/s, 162° | 0 W/m² | - |
| 1777975297 | 13.33° C | 63% | 1011.5 hPa | 0 mm | 1.34 m/s, 161° | 0 W/m² | - |
| 1777974992 | 13.33° C | 64% | 1011.4 hPa | 0 mm | 1.34 m/s, 152° | 0 W/m² | - |
| 1777974690 | 13.33° C | 64% | 1011.5 hPa | 0 mm | 3.13 m/s, 154° | 0 W/m² | - |
| 1777974386 | 13.33° C | 64% | 1011.7 hPa | 0 mm | 1.79 m/s, 142° | 0 W/m² | - |
| 1777974082 | 13.33° C | 64% | 1011.7 hPa | 0 mm | 3.13 m/s, 148° | 0 W/m² | - |
| 1777973779 | 13.33° C | 63% | 1011.7 hPa | 0 mm | 2.68 m/s, 157° | 0 W/m² | - |
| 1777973476 | 13.33° C | 61% | 1011.5 hPa | 0 mm | 2.24 m/s, 157° | 0 W/m² | - |
| 1777973173 | 13.33° C | 61% | 1011.7 hPa | 0 mm | 2.68 m/s, 137° | 0 W/m² | - |
| 1777972872 | 13.33° C | 60% | 1011.4 hPa | 0 mm | 2.24 m/s, 130° | 0 W/m² | - |
* Rain latest hour (hover to see other rain measurements)
** Current wind speed in m/s (hover to see current wind gust speed)